[[{"header":{"parameterUnit":"m.s-1","parameterCategory":1,"la1":30.2991,"la2":30.254,"lo1":-89.0895,"lo2":-89.0444,"dy":0.0017,"dx":0.0017,"nx":28,"ny":28,"refTime":"2025-12-06T03:00:00:Z","depth":0,"parameterNumber":2,"parameterNumberName":"U-component_of_WINDS"},"data":[0,0,0,0,0,0,0,0,0,0,0,0,0,0,0,0,0,0,0,0,0,0,0,0,0,0,0,0,0,0,0,0,0,0,0,0,0,0,0,0,0,0,0,0,0,0,0,0,0,0,0,0,0,0,0,0,0,0,-3.6609,-3.661,0,-3.6673,-3.6673,-3.6674,-3.6589,-3.6586,-3.6583,-3.658,-3.6645,-3.665,-3.6654,0,0,0,0,0,0,0,0,0,0,0,0,0,-3.6413,-3.6417,-3.6609,-3.661,-3.6611,-3.6673,-3.6673,-3.6674,-3.659,-3.6586,-3.6582,-3.6579,-3.6644,-3.6649,-3.6655,0,0,0,0,0,0,0,0,0,0,0,0,0,-3.649,-3.6419,-3.6609,-3.6576,-3.6573,-3.6672,-3.6673,-3.6675,-3.659,-3.6586,-3.6581,-3.6577,-3.6642,-3.6649,-3.6656,-3.679,0,0,-3.6677,-3.668,0,0,0,0,0,0,0,0,-3.6486,-3.6497,-3.658,-3.6578,-3.6576,-3.6618,-3.6628,-3.6713,-3.6591,-3.6584,-3.658,-3.6575,-3.664,-3.6647,-3.6669,-3.6793,-3.6796,-3.6677,-3.6681,-3.6684,-3.6686,0,0,0,0,0,0,0,-3.648,-3.6494,-3.6634,-3.6581,-3.6579,-3.6557,-3.6563,-3.6644,-3.6637,-3.6584,-3.6578,-3.6587,-3.6638,-3.6662,-3.667,-3.6797,-3.6677,-3.6683,-3.6687,-3.669,-3.7033,-3.7038,0,0,0,0,0,0,-3.6479,-3.649,-3.6632,-3.6636,-3.6518,-3.6565,-3.6571,-3.6609,-3.6636,-3.6635,-3.6591,-3.6583,-3.6653,-3.6662,-3.6672,-3.683,-3.6684,-3.6691,-3.6695,-3.7028,-3.7034,-3.704,0,0,0,0,0,0,-3.6475,-3.6493,-3.663,-3.6561,-3.6577,-3.6573,-3.6616,-3.6613,-3.6637,-3.6641,-3.6639,-3.6617,-3.665,-3.6662,-3.6761,-3.6831,-3.6694,-3.67,-3.7022,-3.703,-3.7037,-3.7149,0,0,0,0,0,0,-3.647,-3.6492,-3.6543,-3.6563,-3.6581,-3.6718,-3.6621,-3.6617,-3.6649,-3.6639,-3.6665,-3.6665,-3.6647,-3.6751,-3.6768,-3.6838,-3.6705,-3.7016,-3.7026,-3.7035,-3.7139,-3.7159,-3.7176,0,0,0,0,0,-3.6463,-3.6572,-3.6546,-3.6564,-3.6645,-3.6723,-3.6733,-3.671,-3.6655,-3.6707,-3.6709,-3.6664,-3.6821,-3.6762,-3.678,-3.6854,-3.7012,-3.7023,-3.7034,-3.713,-3.7155,-3.7176,0,0,0,0,0,0,-3.6561,-3.6574,-3.6545,-3.6664,-3.6693,-3.6708,-3.6772,-3.6737,-3.6782,-3.6771,-3.6741,-3.6747,-3.6853,-3.6863,-3.6797,-3.6984,-3.6907,-3.6922,-3.6974,-3.6998,-3.7016,-3.7011,-3.6711,0,0,0,0,0,-3.6596,-3.6658,-3.6666,-3.677,-3.6786,-3.6777,-3.681,-3.679,-3.6818,-3.683,-3.6839,-3.6868,-3.6924,-3.6961,-3.7013,-3.714,-3.7143,-3.7199,-3.7218,-3.7233,-3.7247,-3.7314,-3.7338,-3.7077,-3.7076,-3.7076,0,0,-3.6669,-3.6684,-3.6725,-3.679,-3.681,-3.6874,-3.6788,-3.6859,-3.6907,-3.684,-3.6934,-3.6942,-3.6973,-3.7086,-3.7136,-3.7098,-3.732,-3.7248,-3.726,-3.7265,-3.7328,-3.7353,-3.7375,-3.7084,-3.7083,-3.7082,0,0,-3.6836,-3.6854,-3.6942,-3.6964,-3.6995,-3.6988,-3.7009,-3.703,-3.7032,-3.7126,-3.7077,-3.7133,-3.723,-3.7253,-3.7278,-3.7452,-3.7413,-3.747,-3.7569,-3.7634,-3.7655,-3.7673,-3.7735,-3.7757,-3.7484,-3.7484,-3.7484,0,-3.6924,-3.7019,-3.6992,-3.7067,-3.7097,-3.7039,-3.7128,-3.715,-3.7197,-3.7218,-3.7174,-3.7294,-3.731,-3.7428,-3.747,-3.7492,-3.7515,-3.7467,-3.7654,-3.7672,-3.7688,-3.7747,-3.777,-3.7491,-3.749,-3.7489,-3.7489,0,-3.7124,-3.7191,-3.7258,-3.7304,-3.7341,-3.7423,-3.7408,-3.7449,-3.7425,-3.7423,-3.7519,-3.7536,-3.759,-3.7616,-3.7595,-3.7731,-3.7706,-3.7659,-3.758,-3.7721,-3.7775,-3.7797,-3.75,-3.7498,-3.7496,-3.7494,0,0,-3.7354,-3.7384,-3.7409,-3.7429,-3.7459,-3.7509,-3.7588,-3.764,-3.7675,-3.7709,-3.7774,-3.7857,-3.7813,-3.7841,-3.7821,-3.7879,-3.8015,-3.7824,-3.7824,-3.7858,-3.8165,-3.82,-3.8227,-3.7989,-3.7993,-3.7996,-3.8163,0,-3.7521,-3.7657,-3.7635,-3.7766,-3.7827,-3.7773,-3.7841,-3.7867,-3.7867,-3.7918,-3.7917,-3.7976,-3.7914,-3.7931,-3.7985,-3.7987,-3.8076,-3.7975,-3.8048,-3.8051,-3.8042,-3.8255,-3.8293,-3.8449,-3.8184,-3.8187,-3.819,0,-3.7733,-3.7774,-3.7912,-3.7931,-3.7955,-3.8017,-3.8063,-3.8113,-3.814,-3.8136,-3.8167,-3.8136,-3.8214,-3.8134,-3.8241,-3.8172,-3.8201,-3.8206,-3.8212,-3.8218,-3.8129,-3.8266,-3.8498,-3.8522,-3.8223,-3.8221,-3.8218,0,-3.7886,-3.7976,-3.807,-3.8088,-3.8113,-3.8158,-3.817,-3.8193,-3.8226,-3.8265,-3.8286,-3.8335,-3.8361,-3.8399,-3.8382,-3.8326,-3.8492,-3.8411,-3.849,-3.8491,-3.8527,-3.8525,-3.8767,-3.8547,-3.8547,-3.8546,-3.8546,0,-3.8074,-3.816,-3.8139,-3.8197,-3.8291,-3.8265,-3.8359,-3.8365,-3.8386,-3.8443,-3.8399,-3.8454,-3.8428,-3.8481,-3.8468,-3.8558,-3.8571,-3.8569,-3.8564,-3.8573,-3.8573,-3.8591,-3.8579,-3.8552,-3.8551,-3.855,-3.8549,0,-3.8261,-3.825,-3.8349,-3.8364,-3.837,-3.8439,-3.8452,-3.8506,-3.8502,-3.8575,-3.859,-3.8584,-3.8644,-3.8631,-3.8697,-3.8688,-3.88,-3.8783,-3.8791,-3.8787,-3.8866,-3.8859,-3.9127,-3.9161,-3.892,-3.8923,-3.8925,0,-3.8381,-3.8446,-3.8468,-3.8504,-3.8519,-3.8577,-3.861,-3.8586,-3.8622,-3.8657,-3.8707,-3.8763,-3.8806,-3.8904,-3.8905,-3.8955,-3.8938,-3.9028,-3.8945,-3.8951,-3.8938,-3.8934,-3.894,-3.9045,-3.9048,-3.905,-3.9052,0,-3.8595,-3.8587,-3.8636,-3.8683,-3.8724,-3.876,-3.8792,-3.8823,-3.8802,-3.8844,-3.8905,-3.8938,-3.9005,-3.9061,-3.9107,-3.9119,-3.9082,-3.9078,-3.9099,-3.9108,-3.911,-3.9109,-3.8836,-3.9072,-3.907,-3.9069,-3.9067,-3.9067,-3.8752,-3.8807,-3.8831,-3.8887,-3.8908,-3.8939,-3.899,-3.8992,-3.9042,-3.9095,-3.9077,-3.9147,-3.9171,-3.9229,-3.9246,-3.93,-3.9265,-3.9296,-3.9303,-3.9311,-3.932,-3.9102,-3.9308,-3.9307,-3.9307,-3.9306,-3.9306,0,-3.8964,-3.8976,-3.9028,-3.9074,-3.9118,-3.9079,-3.9112,-3.9151,-3.9212,-3.9238,-3.9282,-3.9351,-3.9405,-3.941,-3.9461,-3.9502,-3.9486,-3.9516,-3.9512,-3.9516,-3.9349,-3.9325,-3.9528,-3.9528,-3.9528,-3.9528,-3.9528,-3.9528,-3.9079,-3.9169,-3.9163,-3.9264,-3.9275,-3.9343,-3.9365,-3.9393,-3.9413,-3.9492,-3.9537,-3.954,-3.9557,-3.9608,-3.9656,-3.9656,-3.9676,-3.9712,-3.9706,-3.955,-3.9528,-3.9507,-3.9484,-3.9717,-3.9717,-3.9868,-3.987,-3.9871]},{"header":{"parameterUnit":"m.s-1","parameterCategory":1,"la1":30.2991,"la2":30.254,"lo1":-89.0895,"lo2":-89.0444,"dy":0.0017,"dx":0.0017,"nx":28,"ny":28,"refTime":"2025-12-06T03:00:00:Z","depth":0,"parameterNumber":3,"parameterNumberName":"V-component_of_WINDS"},"data":[0,0,0,0,0,0,0,0,0,0,0,0,0,0,0,0,0,0,0,0,0,0,0,0,0,0,0,0,0,0,0,0,0,0,0,0,0,0,0,0,0,0,0,0,0,0,0,0,0,0,0,0,0,0,0,0,0,0,-2.6995,-2.6996,0,-2.7063,-2.7063,-2.7064,-2.7013,-2.7011,-2.7009,-2.7007,-2.7075,-2.7079,-2.7083,0,0,0,0,0,0,0,0,0,0,0,0,0,-2.6821,-2.6824,-2.6995,-2.6996,-2.6997,-2.7063,-2.7063,-2.7064,-2.7014,-2.7011,-2.7008,-2.7006,-2.7074,-2.7078,-2.7083,0,0,0,0,0,0,0,0,0,0,0,0,0,-2.6893,-2.6826,-2.6995,-2.6979,-2.6979,-2.7062,-2.7064,-2.7065,-2.7014,-2.7011,-2.7008,-2.7005,-2.7072,-2.7078,-2.7084,-2.7186,0,0,-2.7101,-2.7104,0,0,0,0,0,0,0,0,-2.6889,-2.69,-2.6981,-2.6981,-2.698,-2.7026,-2.7027,-2.7105,-2.7015,-2.7001,-2.7007,-2.7003,-2.7061,-2.7068,-2.7088,-2.7189,-2.7192,-2.7102,-2.7105,-2.7108,-2.7109,0,0,0,0,0,0,0,-2.6884,-2.6897,-2.7022,-2.6982,-2.6982,-2.6969,-2.6975,-2.7042,-2.7049,-2.7002,-2.6998,-2.7007,-2.706,-2.7082,-2.7089,-2.7193,-2.7102,-2.7107,-2.711,-2.7113,-2.7382,-2.7385,0,0,0,0,0,0,-2.6881,-2.6893,-2.702,-2.7024,-2.6926,-2.6975,-2.6982,-2.7015,-2.7048,-2.705,-2.701,-2.7004,-2.7074,-2.7082,-2.7091,-2.7214,-2.7108,-2.7113,-2.7117,-2.7378,-2.7383,-2.7386,0,0,0,0,0,0,-2.6877,-2.6893,-2.7017,-2.6957,-2.6972,-2.6981,-2.7018,-2.7018,-2.704,-2.7054,-2.7055,-2.7031,-2.7072,-2.7083,-2.7163,-2.7215,-2.7116,-2.7121,-2.7374,-2.7379,-2.7384,-2.7459,0,0,0,0,0,0,-2.6873,-2.6892,-2.6931,-2.6959,-2.6976,-2.7088,-2.7022,-2.7022,-2.705,-2.7044,-2.7074,-2.7076,-2.707,-2.7154,-2.7169,-2.7222,-2.7126,-2.7369,-2.7376,-2.7383,-2.7452,-2.7467,-2.7479,0,0,0,0,0,-2.6867,-2.6949,-2.6933,-2.6949,-2.7025,-2.7091,-2.7101,-2.7093,-2.7054,-2.7094,-2.7103,-2.7075,-2.7207,-2.7163,-2.7178,-2.7234,-2.7366,-2.7374,-2.7382,-2.7446,-2.7464,-2.7479,0,0,0,0,0,0,-2.6927,-2.6952,-2.6935,-2.7029,-2.7058,-2.7082,-2.7132,-2.7111,-2.7152,-2.7144,-2.7132,-2.7139,-2.7223,-2.7236,-2.7187,-2.7335,-2.728,-2.7292,-2.7324,-2.7341,-2.7354,-2.7349,-2.713,0,0,0,0,0,-2.6951,-2.7003,-2.7022,-2.7103,-2.7119,-2.7123,-2.7151,-2.7143,-2.7172,-2.7184,-2.7199,-2.7229,-2.7277,-2.7309,-2.7354,-2.7453,-2.746,-2.7499,-2.7513,-2.7524,-2.7534,-2.7589,-2.7607,-2.7414,-2.7413,-2.7413,0,0,-2.7001,-2.7022,-2.7055,-2.7116,-2.7137,-2.7192,-2.7134,-2.7193,-2.7233,-2.7193,-2.727,-2.7282,-2.7314,-2.7405,-2.7445,-2.7418,-2.7589,-2.7534,-2.7543,-2.7548,-2.7599,-2.7617,-2.7633,-2.7419,-2.7418,-2.7417,0,0,-2.7121,-2.7142,-2.7212,-2.7235,-2.7269,-2.7271,-2.7288,-2.7315,-2.7322,-2.7399,-2.737,-2.7417,-2.75,-2.7525,-2.7548,-2.7678,-2.7654,-2.7693,-2.7763,-2.7816,-2.7832,-2.7845,-2.7892,-2.7909,-2.7703,-2.7703,-2.7703,0,-2.7179,-2.726,-2.725,-2.7312,-2.734,-2.7307,-2.7378,-2.74,-2.7447,-2.7467,-2.7436,-2.754,-2.7559,-2.7655,-2.7687,-2.7707,-2.7726,-2.769,-2.783,-2.7844,-2.7856,-2.7901,-2.7919,-2.7708,-2.7707,-2.7707,-2.7706,0,-2.7331,-2.7387,-2.744,-2.7487,-2.752,-2.7586,-2.7586,-2.7621,-2.7609,-2.7615,-2.7694,-2.7715,-2.7765,-2.7787,-2.7775,-2.7881,-2.7864,-2.7832,-2.7777,-2.7879,-2.7921,-2.7938,-2.7714,-2.7713,-2.7711,-2.771,0,0,-2.7491,-2.7532,-2.7551,-2.7573,-2.7608,-2.7651,-2.7715,-2.7764,-2.7795,-2.7828,-2.7882,-2.7954,-2.7925,-2.7951,-2.7942,-2.7989,-2.8091,-2.7951,-2.7952,-2.7977,-2.821,-2.8235,-2.8255,-2.8075,-2.8078,-2.8081,-2.8208,0,-2.7613,-2.7727,-2.772,-2.7826,-2.7879,-2.7848,-2.7904,-2.7932,-2.7939,-2.7984,-2.7991,-2.8042,-2.7999,-2.8015,-2.806,-2.8069,-2.8138,-2.806,-2.8126,-2.8128,-2.812,-2.8277,-2.8303,-2.8423,-2.8224,-2.8227,-2.8229,0,-2.7771,-2.7811,-2.7924,-2.7952,-2.7973,-2.8024,-2.8069,-2.8112,-2.8143,-2.8145,-2.8175,-2.8158,-2.8223,-2.8166,-2.8256,-2.8203,-2.823,-2.8238,-2.8243,-2.825,-2.8186,-2.8289,-2.846,-2.8479,-2.8255,-2.8253,-2.8251,0,-2.7879,-2.796,-2.8038,-2.8057,-2.8091,-2.8128,-2.8144,-2.8171,-2.8201,-2.824,-2.8259,-2.8305,-2.833,-2.8365,-2.8362,-2.832,-2.8454,-2.8396,-2.8458,-2.8458,-2.8488,-2.8486,-2.8667,-2.8503,-2.8503,-2.8502,-2.8502,0,-2.8017,-2.8087,-2.8087,-2.8135,-2.8213,-2.8203,-2.828,-2.8292,-2.8317,-2.8366,-2.8342,-2.8389,-2.8381,-2.8428,-2.8425,-2.8501,-2.8512,-2.8515,-2.8514,-2.8518,-2.8518,-2.8536,-2.8529,-2.8507,-2.8506,-2.8505,-2.8504,0,-2.815,-2.8152,-2.8236,-2.8261,-2.827,-2.8326,-2.8348,-2.8393,-2.8398,-2.8461,-2.8475,-2.8483,-2.8537,-2.8537,-2.8598,-2.8597,-2.869,-2.8678,-2.868,-2.8678,-2.874,-2.8735,-2.894,-2.8967,-2.8784,-2.8786,-2.8787,0,-2.8238,-2.8292,-2.8324,-2.8356,-2.8374,-2.8426,-2.8457,-2.8449,-2.8483,-2.8522,-2.8563,-2.8615,-2.8656,-2.8744,-2.8755,-2.8802,-2.8792,-2.8861,-2.8799,-2.8803,-2.8795,-2.8793,-2.8798,-2.8873,-2.8875,-2.8877,-2.8878,0,-2.8396,-2.8395,-2.8441,-2.8488,-2.8525,-2.8561,-2.8595,-2.8622,-2.8618,-2.8657,-2.8712,-2.8745,-2.8808,-2.886,-2.8906,-2.8921,-2.89,-2.8898,-2.8915,-2.892,-2.892,-2.8922,-2.8714,-2.8893,-2.8892,-2.8891,-2.889,-2.8889,-2.851,-2.8557,-2.8587,-2.8639,-2.8664,-2.8696,-2.874,-2.8751,-2.8797,-2.8849,-2.8841,-2.8904,-2.8933,-2.8992,-2.9012,-2.906,-2.9036,-2.9061,-2.9067,-2.9074,-2.9081,-2.8911,-2.9068,-2.9068,-2.9068,-2.9067,-2.9067,0,-2.8668,-2.8686,-2.8734,-2.8782,-2.8823,-2.8799,-2.8835,-2.8871,-2.8926,-2.8956,-2.8997,-2.9061,-2.9112,-2.9127,-2.9176,-2.9212,-2.9204,-2.9225,-2.9223,-2.9228,-2.9099,-2.908,-2.9232,-2.9232,-2.9231,-2.9231,-2.9231,-2.9231,-2.8755,-2.8833,-2.8835,-2.8925,-2.8942,-2.9004,-2.9026,-2.9056,-2.9079,-2.9153,-2.9195,-2.9204,-2.9228,-2.9279,-2.9324,-2.9327,-2.9347,-2.9373,-2.9373,-2.9253,-2.9236,-2.9221,-2.9203,-2.9377,-2.9378,-2.9497,-2.9498,-2.9499]}]]